Location: ?????????
(44.2517°N, 135.2292°E)
Time: 03:45:18
(UTC+00:00)

Cosmos 2322 - Pass Details

Date: 19 May 2025
Orbit: 839 x 854 km, 71.0° (Epoch: 19 June)

Event Time Altitude Azimuth Distance (km) Brightness Sun altitude
Rises 17:11:33 0° 326° (NW) 3,416 7.2 -18.7°
Reaches altitude 10° 17:14:13 10° 317° (NW) 2,479 6.3 -18.4°
Maximum altitude 17:19:13 33° 255° (WSW) 1,401 4.4 -17.9°
Enters shadow 17:20:32 29° 229° (SW) 1,501 4.4 -17.8°
